Year,Month,Day,Hour,Minute,Value (Times are PST for temperature in C)
2018,02,09,00,00,2.80
2018,02,09,00,01,2.80
2018,02,09,00,02,2.80
2018,02,09,00,03,2.80
2018,02,09,00,04,2.80
2018,02,09,00,05,2.80
2018,02,09,00,06,2.80
2018,02,09,00,07,2.80
2018,02,09,00,08,2.80
2018,02,09,00,09,2.80
2018,02,09,00,10,2.80
2018,02,09,00,11,2.70
2018,02,09,00,12,2.70
2018,02,09,00,13,2.70
2018,02,09,00,14,2.70
2018,02,09,00,15,2.70
2018,02,09,00,16,2.70
2018,02,09,00,17,2.60
2018,02,09,00,18,2.60
2018,02,09,00,19,2.60
2018,02,09,00,20,2.50
2018,02,09,00,21,2.50
2018,02,09,00,22,2.60
2018,02,09,00,23,2.60
2018,02,09,00,24,2.70
2018,02,09,00,25,2.80
2018,02,09,00,26,2.80
2018,02,09,00,27,2.90
2018,02,09,00,28,2.90
2018,02,09,00,29,2.80
2018,02,09,00,30,2.80
2018,02,09,00,31,2.80
2018,02,09,00,32,2.80
2018,02,09,00,33,2.80
2018,02,09,00,34,2.70
2018,02,09,00,35,2.70
2018,02,09,00,36,2.60
2018,02,09,00,37,2.60
2018,02,09,00,38,2.60
2018,02,09,00,39,2.60
2018,02,09,00,40,2.60
2018,02,09,00,41,2.60
2018,02,09,00,42,2.60
2018,02,09,00,43,2.60
2018,02,09,00,44,2.60
2018,02,09,00,45,2.50
2018,02,09,00,46,2.50
2018,02,09,00,47,2.50
2018,02,09,00,48,2.50
2018,02,09,00,49,2.50
2018,02,09,00,50,2.50
2018,02,09,00,51,2.40
2018,02,09,00,52,2.50
2018,02,09,00,53,2.40
2018,02,09,00,54,2.40
2018,02,09,00,55,2.40
2018,02,09,00,56,2.30
2018,02,09,00,57,2.30
2018,02,09,00,58,2.30
2018,02,09,00,59,2.40
2018,02,09,01,00,2.40
2018,02,09,01,01,2.40
2018,02,09,01,02,2.40
2018,02,09,01,03,2.40
2018,02,09,01,04,2.40
2018,02,09,01,05,2.40
2018,02,09,01,06,2.40
2018,02,09,01,07,2.40
2018,02,09,01,08,2.40
2018,02,09,01,09,2.40
2018,02,09,01,10,2.40
2018,02,09,01,11,2.40
2018,02,09,01,12,2.40
2018,02,09,01,13,2.30
2018,02,09,01,14,2.30
2018,02,09,01,15,2.30
2018,02,09,01,16,2.30
2018,02,09,01,17,2.40
2018,02,09,01,18,2.40
2018,02,09,01,19,2.40
2018,02,09,01,20,2.40
2018,02,09,01,21,2.40
2018,02,09,01,22,2.40
2018,02,09,01,23,2.30
2018,02,09,01,24,2.30
2018,02,09,01,25,2.40
2018,02,09,01,26,2.40
2018,02,09,01,27,2.40
2018,02,09,01,28,2.40
2018,02,09,01,29,2.40
2018,02,09,01,30,2.40
2018,02,09,01,31,2.30
2018,02,09,01,32,2.40
2018,02,09,01,33,2.40
2018,02,09,01,34,2.40
2018,02,09,01,35,2.40
2018,02,09,01,36,2.40
2018,02,09,01,37,2.30
2018,02,09,01,38,2.30
2018,02,09,01,39,2.30
2018,02,09,01,40,2.30
2018,02,09,01,41,2.30
2018,02,09,01,42,2.30
2018,02,09,01,43,2.30
2018,02,09,01,44,2.30
2018,02,09,01,45,2.30
2018,02,09,01,46,2.30
2018,02,09,01,47,2.30
2018,02,09,01,48,2.30
2018,02,09,01,49,2.30
2018,02,09,01,50,2.30
2018,02,09,01,51,2.30
2018,02,09,01,52,2.30
2018,02,09,01,53,2.30
2018,02,09,01,54,2.30
2018,02,09,01,55,2.30
2018,02,09,01,56,2.30
2018,02,09,01,57,2.30
2018,02,09,01,58,2.30
2018,02,09,01,59,2.30
2018,02,09,02,00,2.40
2018,02,09,02,01,2.40
2018,02,09,02,02,2.40
2018,02,09,02,03,2.40
2018,02,09,02,04,2.40
2018,02,09,02,05,2.40
2018,02,09,02,06,2.40
2018,02,09,02,07,2.50
2018,02,09,02,08,2.50
2018,02,09,02,09,2.50
2018,02,09,02,10,2.50
2018,02,09,02,11,2.50
2018,02,09,02,12,2.50
2018,02,09,02,13,2.60
2018,02,09,02,14,2.60
2018,02,09,02,15,2.60
2018,02,09,02,16,2.60
2018,02,09,02,17,2.60
2018,02,09,02,18,2.60
2018,02,09,02,19,2.60
2018,02,09,02,20,2.60
2018,02,09,02,21,2.60
2018,02,09,02,22,2.60
2018,02,09,02,23,2.60
2018,02,09,02,24,2.60
2018,02,09,02,25,2.70
2018,02,09,02,26,2.70
2018,02,09,02,27,2.70
2018,02,09,02,28,2.70
2018,02,09,02,29,2.70
2018,02,09,02,30,2.70
2018,02,09,02,31,2.70
2018,02,09,02,32,2.70
2018,02,09,02,33,2.70
2018,02,09,02,34,2.70
2018,02,09,02,35,2.70
2018,02,09,02,36,2.70
2018,02,09,02,37,2.70
2018,02,09,02,38,2.80
2018,02,09,02,39,2.80
2018,02,09,02,40,2.80
2018,02,09,02,41,2.70
2018,02,09,02,42,2.70
2018,02,09,02,43,2.70
2018,02,09,02,44,2.70
2018,02,09,02,45,2.70
2018,02,09,02,46,2.70
2018,02,09,02,47,2.80
2018,02,09,02,48,2.80
2018,02,09,02,49,2.80
2018,02,09,02,50,2.80
2018,02,09,02,51,2.80
2018,02,09,02,52,2.80
2018,02,09,02,53,2.80
2018,02,09,02,54,2.80
2018,02,09,02,55,2.80
2018,02,09,02,56,2.80
2018,02,09,02,57,2.80
2018,02,09,02,58,2.80
2018,02,09,02,59,2.80
2018,02,09,03,00,2.80
2018,02,09,03,01,2.80
2018,02,09,03,02,2.90
2018,02,09,03,03,2.90
2018,02,09,03,04,2.90
2018,02,09,03,05,2.90
2018,02,09,03,06,3.00
2018,02,09,03,07,3.00
2018,02,09,03,08,3.00
2018,02,09,03,09,3.10
2018,02,09,03,10,3.10
2018,02,09,03,11,3.10
2018,02,09,03,12,3.10
2018,02,09,03,13,3.10
2018,02,09,03,14,3.10
2018,02,09,03,15,3.10
2018,02,09,03,16,3.10
2018,02,09,03,17,3.10
2018,02,09,03,18,3.10
2018,02,09,03,19,3.10
2018,02,09,03,20,3.10
2018,02,09,03,21,3.10
2018,02,09,03,22,3.10
2018,02,09,03,23,3.10
2018,02,09,03,24,3.10
2018,02,09,03,25,3.10
2018,02,09,03,26,3.10
2018,02,09,03,27,3.10
2018,02,09,03,28,3.10
2018,02,09,03,29,3.10
2018,02,09,03,30,3.10
2018,02,09,03,31,3.10
2018,02,09,03,32,3.10
2018,02,09,03,33,3.10
2018,02,09,03,34,3.20
2018,02,09,03,35,3.20
2018,02,09,03,36,3.20
2018,02,09,03,37,3.20
2018,02,09,03,38,3.10
2018,02,09,03,39,3.10
2018,02,09,03,40,3.10
2018,02,09,03,41,3.10
2018,02,09,03,42,3.10
2018,02,09,03,43,3.10
2018,02,09,03,44,3.10
2018,02,09,03,45,3.10
2018,02,09,03,46,3.10
2018,02,09,03,47,3.10
2018,02,09,03,48,3.10
2018,02,09,03,49,3.10
2018,02,09,03,50,3.10
2018,02,09,03,51,3.10
2018,02,09,03,52,3.10
2018,02,09,03,53,3.10
2018,02,09,03,54,3.10
2018,02,09,03,55,3.20
2018,02,09,03,56,3.20
2018,02,09,03,57,3.20
2018,02,09,03,58,3.20
2018,02,09,03,59,3.20
2018,02,09,04,00,3.20
2018,02,09,04,01,3.20
2018,02,09,04,02,3.20
2018,02,09,04,03,3.20
2018,02,09,04,04,3.20
2018,02,09,04,05,3.20
2018,02,09,04,06,3.20
2018,02,09,04,07,3.20
2018,02,09,04,08,3.20
2018,02,09,04,09,3.20
2018,02,09,04,10,3.20
2018,02,09,04,11,3.20
2018,02,09,04,12,3.20
2018,02,09,04,13,3.30
2018,02,09,04,14,3.20
2018,02,09,04,15,3.20
2018,02,09,04,16,3.20
2018,02,09,04,17,3.20
2018,02,09,04,18,3.20
2018,02,09,04,19,3.20
2018,02,09,04,20,3.20
2018,02,09,04,21,3.20
2018,02,09,04,22,3.30
2018,02,09,04,23,3.30
2018,02,09,04,24,3.30
2018,02,09,04,25,3.30
2018,02,09,04,26,3.30
2018,02,09,04,27,3.30
2018,02,09,04,28,3.30
2018,02,09,04,29,3.30
2018,02,09,04,30,3.30
2018,02,09,04,31,3.30
2018,02,09,04,32,3.30
2018,02,09,04,33,3.30
2018,02,09,04,34,3.30
2018,02,09,04,35,3.30
2018,02,09,04,36,3.30
2018,02,09,04,37,3.40
2018,02,09,04,38,3.40
2018,02,09,04,39,3.40
2018,02,09,04,40,3.40
2018,02,09,04,41,3.40
2018,02,09,04,42,3.50
2018,02,09,04,43,3.50
2018,02,09,04,44,3.50
2018,02,09,04,45,3.50
2018,02,09,04,46,3.50
2018,02,09,04,47,3.50
2018,02,09,04,48,3.50
2018,02,09,04,49,3.50
2018,02,09,04,50,3.50
2018,02,09,04,51,3.50
2018,02,09,04,52,3.50
2018,02,09,04,53,3.50
2018,02,09,04,54,3.50
2018,02,09,04,55,3.50
2018,02,09,04,56,3.50
2018,02,09,04,57,3.40
2018,02,09,04,58,3.40
2018,02,09,04,59,3.40
2018,02,09,05,00,3.40
2018,02,09,05,01,3.40
2018,02,09,05,02,3.50
2018,02,09,05,03,3.50
2018,02,09,05,04,3.50
2018,02,09,05,05,3.50
2018,02,09,05,06,3.50
2018,02,09,05,07,3.50
2018,02,09,05,08,3.50
2018,02,09,05,09,3.50
2018,02,09,05,10,3.50
2018,02,09,05,11,3.50
2018,02,09,05,12,3.50
2018,02,09,05,13,3.50
2018,02,09,05,14,3.60
2018,02,09,05,15,3.60
2018,02,09,05,16,3.60
2018,02,09,05,17,3.60
2018,02,09,05,18,3.60
2018,02,09,05,19,3.60
2018,02,09,05,20,3.50
2018,02,09,05,21,3.60
2018,02,09,05,22,3.60
2018,02,09,05,23,3.50
2018,02,09,05,24,3.60
2018,02,09,05,25,3.60
2018,02,09,05,26,3.60
2018,02,09,05,27,3.60
2018,02,09,05,28,3.60
2018,02,09,05,29,3.60
2018,02,09,05,30,3.60
2018,02,09,05,31,3.60
2018,02,09,05,32,3.60
2018,02,09,05,33,3.60
2018,02,09,05,34,3.50
2018,02,09,05,35,3.60
2018,02,09,05,36,3.60
2018,02,09,05,37,3.60
2018,02,09,05,38,3.60
2018,02,09,05,39,3.60
2018,02,09,05,40,3.60
2018,02,09,05,41,3.60
2018,02,09,05,42,3.50
2018,02,09,05,43,3.50
2018,02,09,05,44,3.50
2018,02,09,05,45,3.50
2018,02,09,05,46,3.50
2018,02,09,05,47,3.50
2018,02,09,05,48,3.50
2018,02,09,05,49,3.50
2018,02,09,05,50,3.40
2018,02,09,05,51,3.40
2018,02,09,05,52,3.40
2018,02,09,05,53,3.40
2018,02,09,05,54,3.40
2018,02,09,05,55,3.40
2018,02,09,05,56,3.40
2018,02,09,05,57,3.40
2018,02,09,05,58,3.40
2018,02,09,05,59,3.40
2018,02,09,06,00,3.40
2018,02,09,06,01,3.30
2018,02,09,06,02,3.40
2018,02,09,06,03,3.40
2018,02,09,06,04,3.30
2018,02,09,06,05,3.30
2018,02,09,06,06,3.30
2018,02,09,06,07,3.30
2018,02,09,06,08,3.30
2018,02,09,06,09,3.20
2018,02,09,06,10,3.20
2018,02,09,06,11,3.20
2018,02,09,06,12,3.20
2018,02,09,06,13,3.10
2018,02,09,06,14,3.10
2018,02,09,06,15,3.10
2018,02,09,06,16,3.10
2018,02,09,06,17,3.10
2018,02,09,06,18,3.10
2018,02,09,06,19,3.10
2018,02,09,06,20,3.00
2018,02,09,06,21,3.00
2018,02,09,06,22,3.00
2018,02,09,06,23,3.00
2018,02,09,06,24,3.00
2018,02,09,06,25,3.00
2018,02,09,06,26,3.00
2018,02,09,06,27,2.90
2018,02,09,06,28,2.90
2018,02,09,06,29,2.90
2018,02,09,06,30,2.90
2018,02,09,06,31,2.90
2018,02,09,06,32,2.90
2018,02,09,06,33,2.90
2018,02,09,06,34,2.90
2018,02,09,06,35,2.90
2018,02,09,06,36,2.90
2018,02,09,06,37,2.90
2018,02,09,06,38,2.90
2018,02,09,06,39,2.90
2018,02,09,06,40,2.90
2018,02,09,06,41,2.90
2018,02,09,06,42,3.00
2018,02,09,06,43,3.00
2018,02,09,06,44,3.00
2018,02,09,06,45,3.10
2018,02,09,06,46,3.10
2018,02,09,06,47,3.10
2018,02,09,06,48,3.10
2018,02,09,06,49,3.10
2018,02,09,06,50,3.10
2018,02,09,06,51,3.10
2018,02,09,06,52,3.10
2018,02,09,06,53,3.10
2018,02,09,06,54,3.10
2018,02,09,06,55,3.10
2018,02,09,06,56,3.10
2018,02,09,06,57,3.10
2018,02,09,06,58,3.10
2018,02,09,06,59,3.20
2018,02,09,07,00,3.20
2018,02,09,07,01,3.20
2018,02,09,07,02,3.20
2018,02,09,07,03,3.20
2018,02,09,07,04,3.20
2018,02,09,07,05,3.20
2018,02,09,07,06,3.20
2018,02,09,07,07,3.20
2018,02,09,07,08,3.30
2018,02,09,07,09,3.30
2018,02,09,07,10,3.30
2018,02,09,07,11,3.30
2018,02,09,07,12,3.30
2018,02,09,07,13,3.30
2018,02,09,07,14,3.30
2018,02,09,07,15,3.30
2018,02,09,07,16,3.30
2018,02,09,07,17,3.30
2018,02,09,07,18,3.30
2018,02,09,07,19,3.30
2018,02,09,07,20,3.30
2018,02,09,07,21,3.30
2018,02,09,07,22,3.30
2018,02,09,07,23,3.30
2018,02,09,07,24,3.30
2018,02,09,07,25,3.30
2018,02,09,07,26,3.30
2018,02,09,07,27,3.30
2018,02,09,07,28,3.30
2018,02,09,07,29,3.30
2018,02,09,07,30,3.30
2018,02,09,07,31,3.30
2018,02,09,07,32,3.30
2018,02,09,07,33,3.30
2018,02,09,07,34,3.30
2018,02,09,07,35,3.30
2018,02,09,07,36,3.30
2018,02,09,07,37,3.30
2018,02,09,07,38,3.30
2018,02,09,07,39,3.30
2018,02,09,07,40,3.30
2018,02,09,07,41,3.30
2018,02,09,07,42,3.30
2018,02,09,07,43,3.30
2018,02,09,07,44,3.30
2018,02,09,07,45,3.30
2018,02,09,07,46,3.30
2018,02,09,07,47,3.30
2018,02,09,07,48,3.40
2018,02,09,07,49,3.30
2018,02,09,07,50,3.30
2018,02,09,07,51,3.30
2018,02,09,07,52,3.30
2018,02,09,07,53,3.30
2018,02,09,07,54,3.30
2018,02,09,07,55,3.30
2018,02,09,07,56,3.30
2018,02,09,07,57,3.30
2018,02,09,07,58,3.30
2018,02,09,07,59,3.30
2018,02,09,08,00,3.30
2018,02,09,08,01,3.30
2018,02,09,08,02,3.30
2018,02,09,08,03,3.40
2018,02,09,08,04,3.40
2018,02,09,08,05,3.40
2018,02,09,08,06,3.40
2018,02,09,08,07,3.40
2018,02,09,08,08,3.40
2018,02,09,08,09,3.40
2018,02,09,08,10,3.40
2018,02,09,08,11,3.40
2018,02,09,08,12,3.40
2018,02,09,08,13,3.40
2018,02,09,08,14,3.50
2018,02,09,08,15,3.50
2018,02,09,08,16,3.50
2018,02,09,08,17,3.50
2018,02,09,08,18,3.60
2018,02,09,08,19,3.60
2018,02,09,08,20,3.60
2018,02,09,08,21,3.60
2018,02,09,08,22,3.60
2018,02,09,08,23,3.70
2018,02,09,08,24,3.70
2018,02,09,08,25,3.70
2018,02,09,08,26,3.70
2018,02,09,08,27,3.70
2018,02,09,08,28,3.70
2018,02,09,08,29,3.80
2018,02,09,08,30,3.80
2018,02,09,08,31,3.80
2018,02,09,08,32,3.80
2018,02,09,08,33,3.80
2018,02,09,08,34,3.80
2018,02,09,08,35,3.80
2018,02,09,08,36,3.90
2018,02,09,08,37,3.90
2018,02,09,08,38,3.90
2018,02,09,08,39,3.90
2018,02,09,08,40,3.90
2018,02,09,08,41,3.90
2018,02,09,08,42,3.90
2018,02,09,08,43,3.90
2018,02,09,08,44,4.00
2018,02,09,08,45,4.00
2018,02,09,08,46,4.10
2018,02,09,08,47,4.10
2018,02,09,08,48,4.10
2018,02,09,08,49,4.20
2018,02,09,08,50,4.20
2018,02,09,08,51,4.30
2018,02,09,08,52,4.30
2018,02,09,08,53,4.40
2018,02,09,08,54,4.50
2018,02,09,08,55,4.50
2018,02,09,08,56,4.60
2018,02,09,08,57,4.60
2018,02,09,08,58,4.70
2018,02,09,08,59,4.70
2018,02,09,09,00,4.70
2018,02,09,09,01,4.80
2018,02,09,09,02,4.80
2018,02,09,09,03,4.80
2018,02,09,09,04,4.80
2018,02,09,09,05,4.80
2018,02,09,09,06,4.80
2018,02,09,09,07,4.90
2018,02,09,09,08,4.90
2018,02,09,09,09,5.00
2018,02,09,09,10,5.10
2018,02,09,09,11,5.10
2018,02,09,09,12,5.20
2018,02,09,09,13,5.30
2018,02,09,09,14,5.30
2018,02,09,09,15,5.40
2018,02,09,09,16,5.40
2018,02,09,09,17,5.40
2018,02,09,09,18,5.50
2018,02,09,09,19,5.50
2018,02,09,09,20,5.60
2018,02,09,09,21,5.60
2018,02,09,09,22,5.60
2018,02,09,09,23,5.70
2018,02,09,09,24,5.70
2018,02,09,09,25,5.80
2018,02,09,09,26,5.80
2018,02,09,09,27,5.80
2018,02,09,09,28,5.90
2018,02,09,09,29,5.90
2018,02,09,09,30,6.00
2018,02,09,09,31,6.10
2018,02,09,09,32,6.10
2018,02,09,09,33,6.10
2018,02,09,09,34,6.10
2018,02,09,09,35,6.20
2018,02,09,09,36,6.20
2018,02,09,09,37,6.20
2018,02,09,09,38,6.20
2018,02,09,09,39,6.30
2018,02,09,09,40,6.30
2018,02,09,09,41,6.30
2018,02,09,09,42,6.30
2018,02,09,09,43,6.30
2018,02,09,09,44,6.30
2018,02,09,09,45,6.40
2018,02,09,09,46,6.40
2018,02,09,09,47,6.40
2018,02,09,09,48,6.50
2018,02,09,09,49,6.50
2018,02,09,09,50,6.50
2018,02,09,09,51,6.60
2018,02,09,09,52,6.60
2018,02,09,09,53,6.60
2018,02,09,09,54,6.60
2018,02,09,09,55,6.60
2018,02,09,09,56,6.60
2018,02,09,09,57,6.60
2018,02,09,09,58,6.70
2018,02,09,09,59,6.70
2018,02,09,10,00,6.70
2018,02,09,10,01,6.70
2018,02,09,10,02,6.80
2018,02,09,10,03,6.80
2018,02,09,10,04,6.90
2018,02,09,10,05,6.90
2018,02,09,10,06,6.90
2018,02,09,10,07,6.90
2018,02,09,10,08,6.90
2018,02,09,10,09,6.90
2018,02,09,10,10,6.90
2018,02,09,10,11,6.90
2018,02,09,10,12,7.00
2018,02,09,10,13,7.00
2018,02,09,10,14,7.00
2018,02,09,10,15,7.10
2018,02,09,10,16,7.10
2018,02,09,10,17,7.10
2018,02,09,10,18,7.20
2018,02,09,10,19,7.20
2018,02,09,10,20,7.20
2018,02,09,10,21,7.20
2018,02,09,10,22,7.20
2018,02,09,10,23,7.20
2018,02,09,10,24,7.20
2018,02,09,10,25,7.20
2018,02,09,10,26,7.20
2018,02,09,10,27,7.20
2018,02,09,10,28,7.20
2018,02,09,10,29,7.20
2018,02,09,10,30,7.30
2018,02,09,10,31,7.30
2018,02,09,10,32,7.30
2018,02,09,10,33,7.30
2018,02,09,10,34,7.30
2018,02,09,10,35,7.40
2018,02,09,10,36,7.40
2018,02,09,10,37,7.50
2018,02,09,10,38,7.60
2018,02,09,10,39,7.60
2018,02,09,10,40,7.70
2018,02,09,10,41,7.70
2018,02,09,10,42,7.70
2018,02,09,10,43,7.60
2018,02,09,10,44,7.60
2018,02,09,10,45,7.60
2018,02,09,10,46,7.50
2018,02,09,10,47,7.50
2018,02,09,10,48,7.50
2018,02,09,10,49,7.50
2018,02,09,10,50,7.50
2018,02,09,10,51,7.50
2018,02,09,10,52,7.60
2018,02,09,10,53,7.50
2018,02,09,10,54,7.50
2018,02,09,10,55,7.40
2018,02,09,10,56,7.40
2018,02,09,10,57,7.30
2018,02,09,10,58,7.30
2018,02,09,10,59,7.30
2018,02,09,11,00,7.30
2018,02,09,11,01,7.20
2018,02,09,11,02,7.20
2018,02,09,11,03,7.20
2018,02,09,11,04,7.20
2018,02,09,11,05,7.10
2018,02,09,11,06,7.10
2018,02,09,11,07,7.10
2018,02,09,11,08,7.00
2018,02,09,11,09,6.90
2018,02,09,11,10,6.80
2018,02,09,11,11,6.70
2018,02,09,11,12,6.60
2018,02,09,11,13,6.50
2018,02,09,11,14,6.40
2018,02,09,11,15,6.30
2018,02,09,11,16,6.30
2018,02,09,11,17,6.40
2018,02,09,11,18,6.50
2018,02,09,11,19,6.60
2018,02,09,11,20,6.60
2018,02,09,11,21,6.60
2018,02,09,11,22,6.60
2018,02,09,11,23,6.70
2018,02,09,11,24,6.60
2018,02,09,11,25,6.60
2018,02,09,11,26,6.50
2018,02,09,11,27,6.50
2018,02,09,11,28,6.40
2018,02,09,11,29,6.40
2018,02,09,11,30,6.40
2018,02,09,11,31,6.30
2018,02,09,11,32,6.30
2018,02,09,11,33,6.20
2018,02,09,11,34,6.20
2018,02,09,11,35,6.20
2018,02,09,11,36,6.20
2018,02,09,11,37,6.30
2018,02,09,11,38,6.30
2018,02,09,11,39,6.30
2018,02,09,11,40,6.30
2018,02,09,11,41,6.30
2018,02,09,11,42,6.20
2018,02,09,11,43,6.20
2018,02,09,11,44,6.20
2018,02,09,11,45,6.20
2018,02,09,11,46,6.20
2018,02,09,11,47,6.20
2018,02,09,11,48,6.10
2018,02,09,11,49,6.10
2018,02,09,11,50,6.00
2018,02,09,11,51,5.90
2018,02,09,11,52,5.90
2018,02,09,11,53,5.90
2018,02,09,11,54,5.90
2018,02,09,11,55,5.90
2018,02,09,11,56,6.00
2018,02,09,11,57,6.00
2018,02,09,11,58,6.00
2018,02,09,11,59,6.10
2018,02,09,12,00,6.10
2018,02,09,12,01,6.10
2018,02,09,12,02,6.00
2018,02,09,12,03,6.00
2018,02,09,12,04,6.00
2018,02,09,12,05,6.00
2018,02,09,12,06,6.10
2018,02,09,12,07,6.10
2018,02,09,12,08,6.10
2018,02,09,12,09,6.10
2018,02,09,12,10,6.10
2018,02,09,12,11,6.10
2018,02,09,12,12,6.10
2018,02,09,12,13,6.20
2018,02,09,12,14,6.20
2018,02,09,12,15,6.20
2018,02,09,12,16,6.20
2018,02,09,12,17,6.30
2018,02,09,12,18,6.30
2018,02,09,12,19,6.30
2018,02,09,12,20,6.40
2018,02,09,12,21,6.50
2018,02,09,12,22,6.60
2018,02,09,12,23,6.70
2018,02,09,12,24,6.70
2018,02,09,12,25,6.80
2018,02,09,12,26,6.80
2018,02,09,12,27,6.70
2018,02,09,12,28,6.60
2018,02,09,12,29,6.50
2018,02,09,12,30,6.50
2018,02,09,12,31,6.40
2018,02,09,12,32,6.30
2018,02,09,12,33,6.20
2018,02,09,12,34,6.20
2018,02,09,12,35,6.10
2018,02,09,12,36,6.10
2018,02,09,12,37,6.00
2018,02,09,12,38,6.00
2018,02,09,12,39,6.00
2018,02,09,12,40,6.00
2018,02,09,12,41,6.10
2018,02,09,12,42,6.10
2018,02,09,12,43,6.10
2018,02,09,12,44,6.20
2018,02,09,12,45,6.20
2018,02,09,12,46,6.30
2018,02,09,12,47,6.30
2018,02,09,12,48,6.30
2018,02,09,12,49,6.30
2018,02,09,12,50,6.30
2018,02,09,12,51,6.30
2018,02,09,12,52,6.30
2018,02,09,12,53,6.30
2018,02,09,12,54,6.30
2018,02,09,12,55,6.30
2018,02,09,12,56,6.30
2018,02,09,12,57,6.30
2018,02,09,12,58,6.20
2018,02,09,12,59,6.20
2018,02,09,13,00,6.10
2018,02,09,13,01,6.10
2018,02,09,13,02,6.10
2018,02,09,13,03,6.10
2018,02,09,13,04,6.10
2018,02,09,13,05,6.10
2018,02,09,13,06,6.10
2018,02,09,13,07,6.10
2018,02,09,13,12,6.30
2018,02,09,13,13,6.30
2018,02,09,13,14,6.30
2018,02,09,13,15,6.30
2018,02,09,13,16,6.20
2018,02,09,13,17,6.20
2018,02,09,13,18,6.20
2018,02,09,13,19,6.20
2018,02,09,13,20,6.10
2018,02,09,13,21,6.10
2018,02,09,13,22,6.10
2018,02,09,13,23,6.10
2018,02,09,13,24,6.10
2018,02,09,13,25,6.10
2018,02,09,13,26,6.00
2018,02,09,13,27,6.00
2018,02,09,13,28,5.90
2018,02,09,13,29,5.90
2018,02,09,13,30,5.90
2018,02,09,13,31,5.90
2018,02,09,13,32,5.90
2018,02,09,13,33,5.90
2018,02,09,13,34,5.90
2018,02,09,13,35,5.90
2018,02,09,13,36,5.90
2018,02,09,13,37,5.90
2018,02,09,13,38,6.00
2018,02,09,13,39,6.00
2018,02,09,13,40,6.10
2018,02,09,13,41,6.10
2018,02,09,13,42,6.10
2018,02,09,13,43,6.20
2018,02,09,13,44,6.20
2018,02,09,13,45,6.30
2018,02,09,13,46,6.30
2018,02,09,13,47,6.40
2018,02,09,13,48,6.40
2018,02,09,13,49,6.40
2018,02,09,13,50,6.50
2018,02,09,13,51,6.60
2018,02,09,13,52,6.60
2018,02,09,13,53,6.70
2018,02,09,13,54,6.60
2018,02,09,13,55,6.60
2018,02,09,13,56,6.60
2018,02,09,13,57,6.50
2018,02,09,13,58,6.40
2018,02,09,13,59,6.40
2018,02,09,14,00,6.40
2018,02,09,14,01,6.40
2018,02,09,14,02,6.30
2018,02,09,14,03,6.20
2018,02,09,14,04,6.10
2018,02,09,14,05,6.10
2018,02,09,14,06,6.10
2018,02,09,14,07,6.10
2018,02,09,14,08,6.00
2018,02,09,14,09,6.00
2018,02,09,14,10,6.00
2018,02,09,14,11,5.90
2018,02,09,14,12,5.90
2018,02,09,14,13,5.90
2018,02,09,14,14,5.90
2018,02,09,14,15,5.90
2018,02,09,14,16,5.90
2018,02,09,14,17,5.90
2018,02,09,14,18,5.90
2018,02,09,14,19,5.90
2018,02,09,14,20,5.90
2018,02,09,14,21,5.90
2018,02,09,14,22,5.90
2018,02,09,14,23,5.90
2018,02,09,14,24,5.90
2018,02,09,14,25,5.90
2018,02,09,14,26,5.90
2018,02,09,14,27,5.90
2018,02,09,14,28,5.90
2018,02,09,14,29,5.90
2018,02,09,14,30,5.90
2018,02,09,14,31,5.90
2018,02,09,14,32,5.90
2018,02,09,14,33,5.80
2018,02,09,14,34,5.80
2018,02,09,14,35,5.80
2018,02,09,14,36,5.80
2018,02,09,14,37,5.80
2018,02,09,14,38,5.80
2018,02,09,14,39,5.80
2018,02,09,14,40,5.80
2018,02,09,14,41,5.80
2018,02,09,14,42,5.80
2018,02,09,14,43,5.80
2018,02,09,14,44,5.80
2018,02,09,14,45,5.80
2018,02,09,14,46,5.80
2018,02,09,14,47,5.80
2018,02,09,14,48,5.80
2018,02,09,14,49,5.80
2018,02,09,14,50,5.80
2018,02,09,14,51,5.80
2018,02,09,14,52,5.80
2018,02,09,14,53,5.80
2018,02,09,14,54,5.80
2018,02,09,14,55,5.80
2018,02,09,14,56,5.80
2018,02,09,14,57,5.70
2018,02,09,14,58,5.70
2018,02,09,14,59,5.70
2018,02,09,15,00,5.70
2018,02,09,15,01,5.70
2018,02,09,15,02,5.70
2018,02,09,15,03,5.70
2018,02,09,15,04,5.70
2018,02,09,15,05,5.70
2018,02,09,15,06,5.70
2018,02,09,15,07,5.80
2018,02,09,15,08,5.80
2018,02,09,15,09,5.80
2018,02,09,15,10,5.80
2018,02,09,15,11,5.80
2018,02,09,15,12,5.80
2018,02,09,15,13,5.90
2018,02,09,15,14,5.90
2018,02,09,15,15,5.90
2018,02,09,15,16,5.90
2018,02,09,15,17,5.90
2018,02,09,15,18,5.90
2018,02,09,15,19,5.90
2018,02,09,15,20,5.90
2018,02,09,15,21,5.90
2018,02,09,15,22,5.90
2018,02,09,15,23,5.90
2018,02,09,15,24,5.90
2018,02,09,15,25,5.90
2018,02,09,15,26,5.90
2018,02,09,15,27,5.90
2018,02,09,15,28,5.90
2018,02,09,15,29,5.90
2018,02,09,15,30,5.90
2018,02,09,15,31,5.90
2018,02,09,15,32,5.90
2018,02,09,15,33,5.90
2018,02,09,15,34,5.90
2018,02,09,15,35,5.90
2018,02,09,15,36,5.90
2018,02,09,15,37,5.90
2018,02,09,15,38,5.80
2018,02,09,15,39,5.80
2018,02,09,15,40,5.80
2018,02,09,15,41,5.80
2018,02,09,15,42,5.80
2018,02,09,15,43,5.70
2018,02,09,15,44,5.70
2018,02,09,15,45,5.70
2018,02,09,15,46,5.70
2018,02,09,15,47,5.70
2018,02,09,15,48,5.70
2018,02,09,15,49,5.70
2018,02,09,15,50,5.60
2018,02,09,15,51,5.60
2018,02,09,15,52,5.60
2018,02,09,15,53,5.60
2018,02,09,15,54,5.50
2018,02,09,15,55,5.50
2018,02,09,15,56,5.50
2018,02,09,15,57,5.50
2018,02,09,15,58,5.50
2018,02,09,15,59,5.50
2018,02,09,16,00,5.40
2018,02,09,16,01,5.40
2018,02,09,16,02,5.40
2018,02,09,16,03,5.40
2018,02,09,16,04,5.30
2018,02,09,16,05,5.30
2018,02,09,16,06,5.30
2018,02,09,16,07,5.30
2018,02,09,16,08,5.30
2018,02,09,16,09,5.30
2018,02,09,16,10,5.20
2018,02,09,16,11,5.20
2018,02,09,16,12,5.20
2018,02,09,16,13,5.30
2018,02,09,16,14,5.30
2018,02,09,16,15,5.30
2018,02,09,16,16,5.30
2018,02,09,16,17,5.30
2018,02,09,16,18,5.30
2018,02,09,16,19,5.20
2018,02,09,16,20,5.20
2018,02,09,16,21,5.20
2018,02,09,16,22,5.20
2018,02,09,16,23,5.20
2018,02,09,16,24,5.20
2018,02,09,16,25,5.30
2018,02,09,16,26,5.30
2018,02,09,16,27,5.30
2018,02,09,16,28,5.30
2018,02,09,16,29,5.30
2018,02,09,16,30,5.20
2018,02,09,16,31,5.20
2018,02,09,16,32,5.20
2018,02,09,16,33,5.10
2018,02,09,16,34,5.10
2018,02,09,16,35,5.10
2018,02,09,16,36,5.10
2018,02,09,16,37,5.10
2018,02,09,16,38,5.00
2018,02,09,16,39,5.00
2018,02,09,16,40,5.00
2018,02,09,16,41,4.90
2018,02,09,16,42,4.80
2018,02,09,16,43,4.80
2018,02,09,16,44,4.80
2018,02,09,16,45,4.70
2018,02,09,16,46,4.70
2018,02,09,16,47,4.70
2018,02,09,16,48,4.60
2018,02,09,16,49,4.50
2018,02,09,16,50,4.50
2018,02,09,16,51,4.40
2018,02,09,16,52,4.40
2018,02,09,16,53,4.30
2018,02,09,16,54,4.30
2018,02,09,16,55,4.20
2018,02,09,16,56,4.20
2018,02,09,16,57,4.20
2018,02,09,16,58,4.10
2018,02,09,16,59,4.10
2018,02,09,17,00,4.10
2018,02,09,17,01,4.00
2018,02,09,17,02,3.90
2018,02,09,17,03,3.90
2018,02,09,17,04,3.80
2018,02,09,17,05,3.80
2018,02,09,17,06,3.80
2018,02,09,17,07,3.70
2018,02,09,17,08,3.70
2018,02,09,17,09,3.70
2018,02,09,17,10,3.60
2018,02,09,17,11,3.60
2018,02,09,17,12,3.60
2018,02,09,17,13,3.50
2018,02,09,17,14,3.50
2018,02,09,17,15,3.50
2018,02,09,17,16,3.50
2018,02,09,17,17,3.50
2018,02,09,17,18,3.40
2018,02,09,17,19,3.40
2018,02,09,17,20,3.40
2018,02,09,17,21,3.30
2018,02,09,17,22,3.30
2018,02,09,17,23,3.30
2018,02,09,17,24,3.20
2018,02,09,17,25,3.20
2018,02,09,17,26,3.20
2018,02,09,17,27,3.20
2018,02,09,17,28,3.10
2018,02,09,17,29,3.10
2018,02,09,17,30,3.10
2018,02,09,17,31,3.10
2018,02,09,17,32,3.10
2018,02,09,17,33,3.00
2018,02,09,17,34,3.00
2018,02,09,17,35,3.00
2018,02,09,17,36,2.90
2018,02,09,17,37,2.90
2018,02,09,17,38,2.80
2018,02,09,17,39,2.80
2018,02,09,17,40,2.70
2018,02,09,17,41,2.70
2018,02,09,17,42,2.70
2018,02,09,17,43,2.60
2018,02,09,17,44,2.60
2018,02,09,17,45,2.60
2018,02,09,17,46,2.50
2018,02,09,17,47,2.50
2018,02,09,17,48,2.40
2018,02,09,17,49,2.40
2018,02,09,17,50,2.40
2018,02,09,17,51,2.40
2018,02,09,17,52,2.30
2018,02,09,17,53,2.30
2018,02,09,17,54,2.30
2018,02,09,17,55,2.30
2018,02,09,17,56,2.30
2018,02,09,17,57,2.20
2018,02,09,17,58,2.20
2018,02,09,17,59,2.20
2018,02,09,18,00,2.10
2018,02,09,18,01,2.10
2018,02,09,18,02,2.10
2018,02,09,18,03,2.00
2018,02,09,18,04,2.00
2018,02,09,18,05,1.90
2018,02,09,18,06,1.90
2018,02,09,18,07,1.90
2018,02,09,18,08,1.80
2018,02,09,18,09,1.80
2018,02,09,18,10,1.80